Overview Statistics Trail Chart Weather Telemetry Raw packets
 

This is the latest recevied weather packets stored in our database for station/object OH6GKW. If no packets are shown the sender has not sent any weather packets the latest 10 day(s).

<< 108 109 110 111 112 113 114 >>
Time Temp. Humidity Pressure Rain* Wind** Luminosity Snow
1787844233 20.56° C 48% 1024.3 hPa 0 mm - 253 W/m² -
1787843921 20.56° C 49% 1024.3 hPa 0 mm - 264 W/m² -
1787843617 20.56° C 47% 1024.4 hPa 0 mm - 273 W/m² -
1787843311 20.56° C 49% 1024.4 hPa 0 mm - 283 W/m² -
1787843026 20.56° C 47% 1024.4 hPa 0 mm - 294 W/m² -
1787842716 20.56° C 48% 1024.6 hPa 0 mm - 303 W/m² -
1787842413 20.56° C 50% 1024.6 hPa 0 mm - 313 W/m² -
1787842125 20.56° C 48% 1024.6 hPa 0 mm - 322 W/m² -
1787841817 21.11° C 48% 1024.6 hPa 0 mm - 331 W/m² -
1787841509 21.11° C 49% 1024.6 hPa 0 mm - 343 W/m² -
1787841235 20.56° C 50% 1024.6 hPa 0 mm - 350 W/m² -
1787840924 20.56° C 48% 1024.7 hPa 0 mm - 362 W/m² -
1787840616 20.56° C 48% 1024.7 hPa 0 mm - 371 W/m² -
1787840327 21.11° C 47% 1024.7 hPa 0 mm - 380 W/m² -
1787840025 21.11° C 48% 1024.9 hPa 0 mm - 366 W/m² -
1787839716 21.11° C 48% 1024.9 hPa 0 mm - 373 W/m² -
1787839411 21.11° C 45% 1024.9 hPa 0 mm - 385 W/m² -
1787839124 21.11° C 49% 1024.9 hPa 0 mm - 419 W/m² -
1787838817 20.56° C 48% 1024.9 hPa 0 mm - 433 W/m² -
1787838512 21.11° C 49% 1024.9 hPa 0 mm - 443 W/m² -
1787838237 21.11° C 49% 1024.9 hPa 0 mm - 450 W/m² -
1787837928 21.11° C 47% 1024.9 hPa 0 mm - 440 W/m² -
1787837623 21.11° C 49% 1024.9 hPa 0 mm - 466 W/m² -
1787837315 21.67° C 47% 1025.1 hPa 0 mm - 472 W/m² -
1787837015 21.67° C 45% 1025.1 hPa 0 mm - 475 W/m² -

* Rain since midnight (hover to see other rain measurements)
** Current wind speed in m/s (hover to see current wind gust speed)